| time (UTC) | temp F | wind direction | speed knots | gust knots | rain 1hr in | rain 24hr in | rain mn in | humidity % | barometer mb |
| 20260506224005 | 58 | 5 | 2.6 | 4.3 | 0.01 | 0.21 | 0.01 | 94 | 1004.8 |
| 20260506223504 | 58 | 1 | 2.6 | 3.5 | 0.01 | 0.21 | 0.01 | 94 | 1004.7 |
| 20260506223004 | 58 | 344 | 2.6 | 4.3 | 0.02 | 0.21 | 0.01 | 93 | 1004.7 |
| 20260506222505 | 58 | 338 | 2.6 | 4.3 | 0.02 | 0.21 | 0.01 | 93 | 1004.6 |
| 20260506222004 | 58 | 16 | 3.5 | 3.5 | 0.02 | 0.24 | 0.01 | 94 | 1006.2 |
| 20260506221504 | 58 | 335 | 2.6 | 3.5 | 0.02 | 0.21 | 0.01 | 92 | 1004.8 |
| 20260506221004 | 58 | 11 | 1.7 | 2.6 | 0.02 | 0.22 | 0.00 | 94 | 1006.7 |
| 20260506220505 | 58 | 321 | 0.0 | 3.5 | 0.02 | 0.20 | 0.00 | 91 | 1004.8 |
| 20260506220503 | 58 | 12 | 0.9 | 1.7 | 0.02 | 0.22 | 0.00 | 93 | 1006.3 |
| 20260506220011 | 58 | 342 | 1.7 | 3.5 | 0.05 | 0.22 | 0.00 | 93 | 1006.8 |
| 20260506220005 | 58 | 325 | 1.7 | 3.5 | 0.07 | 0.20 | 0.00 | 91 | 1004.9 |
| 20260506215504 | 58 | 319 | 2.6 | 3.5 | 0.14 | 0.20 | 0.20 | 90 | 1005.0 |
| 20260506215006 | 58 | 308 | 2.6 | 3.5 | 0.20 | 0.20 | 0.20 | 90 | 1005.2 |
| 20260506215004 | 58 | 321 | 2.6 | 3.5 | 0.22 | 0.22 | 0.22 | 91 | 1006.9 |
| 20260506214505 | 58 | 308 | 3.5 | 5.2 | 0.20 | 0.20 | 0.20 | 89 | 1005.3 |
| 20260506214503 | 58 | 324 | 3.5 | 6.1 | 0.22 | 0.22 | 0.22 | 91 | 1006.9 |
| 20260506214003 | 58 | 295 | 4.3 | 6.1 | 0.22 | 0.22 | 0.22 | 90 | 1006.8 |
| 20260506213504 | 58 | 289 | 3.5 | 5.2 | 0.20 | 0.20 | 0.20 | 88 | 1005.3 |
| 20260506213005 | 59 | 284 | 3.5 | 5.2 | 0.19 | 0.19 | 0.19 | 87 | 1005.2 |
| 20260506212504 | 59 | 280 | 3.5 | 5.2 | 0.19 | 0.19 | 0.19 | 86 | 1005.2 |
| 20260506212013 | 58 | 295 | 5.2 | 7.0 | 0.21 | 0.21 | 0.21 | 86 | 1006.9 |
| 20260506212005 | 59 | 303 | 5.2 | 9.6 | 0.19 | 0.19 | 0.19 | 85 | 1005.0 |
| 20260506211724 | 59 | 297 | 6.1 | 9.6 | 0.20 | 0.20 | 0.20 | 86 | 1007.0 |
| 20260506211505 | 59 | 314 | 6.1 | 9.6 | 0.19 | 0.19 | 0.19 | 84 | 1005.0 |
| 20260506211225 | 59 | 305 | 7.0 | 9.6 | 0.20 | 0.20 | 0.20 | 85 | 1006.6 |
| 20260506210231 | 60 | 296 | 7.0 | 9.6 | 0.15 | 0.15 | 0.15 | 79 | 1006.4 |
| 20260506210005 | 60 | 287 | 6.1 | 9.6 | 0.13 | 0.13 | 0.13 | 77 | 1004.7 |
| 20260506205725 | 61 | 301 | 5.2 | 9.6 | 0.12 | 0.12 | 0.12 | 76 | 1006.4 |
| 20260506205505 | 61 | 289 | 4.3 | 7.0 | 0.06 | 0.06 | 0.06 | 73 | 1004.5 |
| 20260506205224 | 61 | 297 | 2.6 | 6.1 | 0.00 | 0.00 | 0.00 | 74 | 1006.1 |
| 20260506205004 | 62 | 289 | 2.6 | 5.2 | 0.00 | 0.00 | 0.00 | 72 | 1004.4 |
| 20260506204724 | 62 | 96 | 0.9 | 2.6 | 0.00 | 0.00 | 0.00 | 73 | 1005.9 |
| 20260506204504 | 62 | 129 | 1.7 | 3.5 | 0.00 | 0.00 | 0.00 | 72 | 1003.8 |
| 20260506204224 | 61 | 157 | 1.7 | 3.5 | 0.00 | 0.00 | 0.00 | 73 | 1005.5 |
| 20260506204005 | 62 | 184 | 2.6 | 3.5 | 0.00 | 0.00 | 0.00 | 72 | 1003.8 |
| 20260506203724 | 61 | 216 | 2.6 | 3.5 | 0.00 | 0.00 | 0.00 | 73 | 1005.5 |
| 20260506203504 | 61 | 239 | 2.6 | 3.5 | 0.00 | 0.00 | 0.00 | 72 | 1004.0 |
| 20260506203005 | 62 | 263 | 1.7 | 3.5 | 0.00 | 0.00 | 0.00 | 70 | 1004.0 |
| 20260506202724 | 61 | 248 | 1.7 | 3.5 | 0.00 | 0.00 | 0.00 | 71 | 1005.6 |
| 20260506202505 | 62 | 270 | 0.0 | 2.6 | 0.00 | 0.00 | 0.00 | 69 | 1003.8 |
| 20260506202224 | 61 | 119 | 0.9 | 1.7 | 0.00 | 0.00 | 0.00 | 70 | 1005.3 |
| 20260506202004 | 62 | 0 | 0.0 | 0.0 | 0.00 | 0.00 | 0.00 | 68 | 1003.8 |
| 20260506201724 | 61 | 116 | 0.9 | 1.7 | 0.00 | 0.00 | 0.00 | 69 | 1005.4 |
| 20260506201505 | 62 | 0 | 0.0 | 0.0 | 0.00 | 0.00 | 0.00 | 67 | 1003.6 |
| 20260506201224 | 61 | 0 | 0.0 | 0.0 | 0.00 | 0.00 | 0.00 | 68 | 1005.5 |
| 20260506201004 | 62 | 0 | 0.0 | 0.0 | 0.00 | 0.00 | 0.00 | 67 | 1003.7 |
| 20260506200724 | 62 | 0 | 0.0 | 0.0 | 0.00 | 0.00 | 0.00 | 67 | 1005.6 |
| 20260506200505 | 63 | 270 | 0.0 | 1.7 | 0.00 | 0.00 | 0.00 | 65 | 1003.9 |
| 20260506200005 | 63 | 311 | 0.0 | 1.7 | 0.00 | 0.00 | 0.00 | 65 | 1003.9 |
| 20260506195724 | 62 | 110 | 0.0 | 1.7 | 0.00 | 0.00 | 0.00 | 66 | 1005.6 |
| 20260506195505 | 63 | 97 | 0.9 | 1.7 | 0.00 | 0.00 | 0.00 | 64 | 1004.0 |
| 20260506195225 | 62 | 103 | 0.9 | 1.7 | 0.00 | 0.00 | 0.00 | 65 | 1005.8 |
| 20260506195005 | 63 | 107 | 0.9 | 1.7 | 0.00 | 0.00 | 0.00 | 64 | 1004.0 |
| 20260506194724 | 63 | 89 | 0.9 | 1.7 | 0.00 | 0.00 | 0.00 | 64 | 1005.7 |
| 20260506194504 | 64 | 90 | 0.0 | 1.7 | 0.00 | 0.00 | 0.00 | 63 | 1003.9 |
| 20260506194005 | 64 | 0 | 0.0 | 0.0 | 0.00 | 0.00 | 0.00 | 63 | 1004.0 |
| 20260506193724 | 63 | 90 | 0.0 | 1.7 | 0.00 | 0.00 | 0.00 | 64 | 1005.6 |
| 20260506193505 | 64 | 0 | 0.0 | 0.0 | 0.00 | 0.00 | 0.00 | 62 | 1004.2 |
| 20260506193224 | 63 | 0 | 0.0 | 0.0 | 0.00 | 0.00 | 0.00 | 63 | 1005.7 |
| 20260506193004 | 64 | 0 | 0.0 | 0.0 | 0.00 | 0.00 | 0.00 | 61 | 1004.3 |
| 20260506192724 | 63 | 0 | 0.0 | 0.0 | 0.00 | 0.00 | 0.00 | 63 | 1006.0 |
| 20260506192224 | 64 | 0 | 0.0 | 0.0 | 0.00 | 0.00 | 0.00 | 62 | 1005.7 |
| 20260506192004 | 65 | 0 | 0.0 | 0.0 | 0.00 | 0.00 | 0.00 | 60 | 1004.2 |
| 20260506191504 | 66 | 0 | 0.0 | 0.0 | 0.00 | 0.00 | 0.00 | 59 | 1004.0 |
| 20260506191224 | 65 | 225 | 0.0 | 0.9 | 0.00 | 0.00 | 0.00 | 59 | 1005.8 |
| 20260506191005 | 66 | 0 | 0.0 | 0.0 | 0.00 | 0.00 | 0.00 | 57 | 1004.0 |
| 20260506190505 | 67 | 0 | 0.0 | 0.0 | 0.00 | 0.00 | 0.00 | 57 | 1004.0 |
| 20260506190231 | 66 | 0 | 0.0 | 0.0 | 0.00 | 0.00 | 0.00 | 57 | 1005.6 |
| 20260506190005 | 67 | 0 | 0.0 | 0.0 | 0.00 | 0.00 | 0.00 | 56 | 1003.8 |
| 20260506185505 | 67 | 0 | 0.0 | 0.0 | 0.00 | 0.00 | 0.00 | 56 | 1003.9 |
| 20260506185004 | 67 | 0 | 0.0 | 0.0 | 0.00 | 0.00 | 0.00 | 56 | 1003.7 |
| 20260506184725 | 67 | 0 | 0.0 | 0.0 | 0.00 | 0.00 | 0.00 | 56 | 1005.5 |
| 20260506184504 | 67 | 0 | 0.0 | 0.0 | 0.00 | 0.00 | 0.00 | 55 | 1003.8 |
| 20260506184224 | 67 | 0 | 0.0 | 0.0 | 0.00 | 0.00 | 0.00 | 55 | 1005.4 |
| 20260506184005 | 68 | 0 | 0.0 | 0.0 | 0.00 | 0.00 | 0.00 | 55 | 1003.6 |
| 20260506183724 | 67 | 225 | 0.0 | 0.9 | 0.00 | 0.00 | 0.00 | 55 | 1005.4 |
| 20260506183504 | 68 | 0 | 0.0 | 0.0 | 0.00 | 0.00 | 0.00 | 54 | 1003.7 |
| 20260506182725 | 68 | 265 | 0.9 | 1.7 | 0.00 | 0.00 | 0.00 | 55 | 1005.4 |
| 20260506182224 | 68 | 268 | 0.9 | 1.7 | 0.00 | 0.00 | 0.00 | 53 | 1005.3 |
| 20260506182005 | 69 | 0 | 0.0 | 0.0 | 0.00 | 0.00 | 0.00 | 53 | 1003.5 |
| 20260506181504 | 69 | 0 | 0.0 | 0.0 | 0.00 | 0.00 | 0.00 | 53 | 1003.5 |
| 20260506181224 | 69 | 270 | 0.0 | 0.9 | 0.00 | 0.00 | 0.00 | 52 | 1005.1 |
| 20260506181004 | 70 | 0 | 0.0 | 0.0 | 0.00 | 0.00 | 0.00 | 51 | 1003.4 |
| 20260506180724 | 70 | 270 | 0.0 | 0.9 | 0.00 | 0.00 | 0.00 | 49 | 1005.0 |
| 20260506180505 | 71 | 314 | 0.0 | 1.7 | 0.00 | 0.00 | 0.00 | 49 | 1003.3 |
| 20260506180230 | 70 | 225 | 0.0 | 0.9 | 0.00 | 0.00 | 0.00 | 49 | 1005.0 |
| 20260506180005 | 71 | 282 | 0.9 | 1.7 | 0.00 | 0.00 | 0.00 | 49 | 1003.3 |
| 20260506175724 | 71 | 257 | 0.0 | 0.9 | 0.00 | 0.00 | 0.00 | 48 | 1005.0 |
| 20260506175505 | 71 | 269 | 0.9 | 1.7 | 0.00 | 0.00 | 0.00 | 48 | 1003.4 |
| 20260506175225 | 71 | 309 | 0.0 | 0.9 | 0.00 | 0.00 | 0.00 | 48 | 1005.0 |
| 20260506175005 | 72 | 297 | 0.9 | 1.7 | 0.00 | 0.00 | 0.00 | 46 | 1003.4 |
| 20260506174725 | 71 | 300 | 0.9 | 2.6 | 0.00 | 0.00 | 0.00 | 48 | 1004.9 |
| 20260506174225 | 72 | 308 | 0.9 | 2.6 | 0.00 | 0.00 | 0.00 | 46 | 1005.0 |
| 20260506174005 | 73 | 295 | 1.7 | 3.5 | 0.00 | 0.00 | 0.00 | 46 | 1003.5 |
| 20260506173724 | 72 | 307 | 1.7 | 3.5 | 0.00 | 0.00 | 0.00 | 46 | 1004.9 |
| 20260506173505 | 74 | 286 | 1.7 | 3.5 | 0.00 | 0.00 | 0.00 | 46 | 1003.5 |
| 20260506173225 | 72 | 302 | 2.6 | 4.3 | 0.00 | 0.00 | 0.00 | 45 | 1005.0 |
| 20260506173004 | 74 | 293 | 2.6 | 4.3 | 0.00 | 0.00 | 0.00 | 46 | 1003.6 |
| 20260506172724 | 72 | 295 | 2.6 | 4.3 | 0.00 | 0.00 | 0.00 | 45 | 1004.9 |
| 20260506172504 | 74 | 291 | 3.5 | 4.3 | 0.00 | 0.00 | 0.00 | 45 | 1003.5 |
| 20260506172225 | 72 | 273 | 3.5 | 4.3 | 0.00 | 0.00 | 0.00 | 44 | 1005.0 |
| 20260506171724 | 73 | 254 | 3.5 | 4.3 | 0.00 | 0.00 | 0.00 | 43 | 1005.3 |
| 20260506171504 | 74 | 260 | 4.3 | 5.2 | 0.00 | 0.00 | 0.00 | 45 | 1003.5 |
| 20260506171224 | 73 | 231 | 3.5 | 6.1 | 0.00 | 0.00 | 0.00 | 44 | 1005.1 |
| 20260506171004 | 74 | 255 | 4.3 | 5.2 | 0.00 | 0.00 | 0.00 | 45 | 1003.4 |
| 20260506170725 | 73 | 245 | 4.3 | 6.1 | 0.00 | 0.00 | 0.00 | 43 | 1005.1 |
| 20260506165724 | 73 | 275 | 4.3 | 5.2 | 0.00 | 0.00 | 0.00 | 44 | 1005.0 |
| 20260506165005 | 73 | 284 | 5.2 | 7.0 | 0.00 | 0.00 | 0.00 | 45 | 1003.5 |
| 20260506164725 | 72 | 287 | 5.2 | 7.0 | 0.00 | 0.00 | 0.00 | 44 | 1005.2 |
| 20260506164224 | 72 | 296 | 5.2 | 7.0 | 0.00 | 0.00 | 0.00 | 44 | 1005.1 |
| 20260506164005 | 73 | 302 | 5.2 | 7.8 | 0.00 | 0.00 | 0.00 | 45 | 1003.5 |
| 20260506163724 | 72 | 262 | 6.1 | 7.0 | 0.00 | 0.00 | 0.00 | 44 | 1005.0 |
| 20260506163504 | 72 | 288 | 6.1 | 7.8 | 0.00 | 0.00 | 0.00 | 44 | 1003.6 |
| 20260506163225 | 72 | 259 | 7.0 | 7.8 | 0.00 | 0.00 | 0.00 | 43 | 1005.3 |
| 20260506163004 | 72 | 293 | 7.0 | 8.7 | 0.00 | 0.00 | 0.00 | 44 | 1003.6 |
| 20260506162724 | 72 | 281 | 7.0 | 9.6 | 0.00 | 0.00 | 0.00 | 43 | 1005.3 |
| 20260506162505 | 72 | 300 | 7.0 | 10.4 | 0.00 | 0.00 | 0.00 | 44 | 1003.5 |
| 20260506161725 | 72 | 260 | 5.2 | 7.0 | 0.00 | 0.00 | 0.00 | 42 | 1005.4 |
| 20260506161504 | 73 | 266 | 6.1 | 9.6 | 0.00 | 0.00 | 0.00 | 43 | 1003.6 |
| 20260506161224 | 73 | 251 | 6.1 | 8.7 | 0.00 | 0.00 | 0.00 | 42 | 1005.5 |
| 20260506161005 | 73 | 290 | 6.1 | 9.6 | 0.00 | 0.00 | 0.00 | 43 | 1003.6 |
| 20260506160724 | 73 | 273 | 7.8 | 9.6 | 0.00 | 0.00 | 0.00 | 42 | 1005.4 |
| 20260506160504 | 74 | 271 | 7.8 | 12.2 | 0.00 | 0.00 | 0.00 | 45 | 1003.6 |
| 20260506160231 | 73 | 294 | 8.7 | 11.3 | 0.00 | 0.00 | 0.00 | 43 | 1005.3 |
| 20260506160005 | 74 | 270 | 8.7 | 12.2 | 0.00 | 0.00 | 0.00 | 44 | 1003.6 |
| 20260506155504 | 74 | 281 | 7.8 | 12.2 | 0.00 | 0.00 | 0.00 | 45 | 1003.8 |
| 20260506155225 | 73 | 281 | 7.0 | 9.6 | 0.00 | 0.00 | 0.00 | 43 | 1005.4 |
| 20260506155005 | 74 | 264 | 8.7 | 14.8 | 0.00 | 0.00 | 0.00 | 45 | 1003.7 |
| 20260506154725 | 73 | 273 | 10.4 | 15.6 | 0.00 | 0.00 | 0.00 | 43 | 1005.5 |
| 20260506154004 | 74 | 242 | 11.3 | 14.8 | 0.00 | 0.00 | 0.00 | 44 | 1003.8 |
| 20260506153724 | 74 | 293 | 10.4 | 13.0 | 0.00 | 0.00 | 0.00 | 42 | 1005.4 |
| 20260506153505 | 74 | 253 | 8.7 | 12.2 | 0.00 | 0.00 | 0.00 | 44 | 1003.6 |
| 20260506153224 | 74 | 275 | 8.7 | 12.2 | 0.00 | 0.00 | 0.00 | 42 | 1005.5 |
| 20260506153004 | 74 | 247 | 8.7 | 14.8 | 0.00 | 0.00 | 0.00 | 44 | 1003.8 |
| 20260506152724 | 74 | 289 | 8.7 | 14.8 | 0.00 | 0.00 | 0.00 | 42 | 1005.5 |
| 20260506152504 | 75 | 267 | 9.6 | 14.8 | 0.00 | 0.00 | 0.00 | 43 | 1003.9 |
| 20260506152224 | 74 | 271 | 9.6 | 14.8 | 0.00 | 0.00 | 0.00 | 41 | 1005.6 |
| 20260506152005 | 75 | 284 | 9.6 | 11.3 | 0.00 | 0.00 | 0.00 | 44 | 1003.7 |
| 20260506151725 | 74 | 276 | 9.6 | 10.4 | 0.00 | 0.00 | 0.00 | 42 | 1005.7 |
| 20260506151504 | 74 | 258 | 8.7 | 11.3 | 0.00 | 0.00 | 0.00 | 43 | 1003.9 |
| 20260506151225 | 74 | 293 | 9.6 | 14.8 | 0.00 | 0.00 | 0.00 | 42 | 1005.4 |
| 20260506151004 | 74 | 273 | 10.4 | 14.8 | 0.00 | 0.00 | 0.00 | 43 | 1004.0 |
| 20260506150724 | 74 | 282 | 11.3 | 15.6 | 0.00 | 0.00 | 0.00 | 40 | 1005.7 |
| 20260506150505 | 74 | 270 | 11.3 | 14.8 | 0.00 | 0.00 | 0.00 | 43 | 1004.0 |
| 20260506150230 | 74 | 293 | 10.4 | 15.6 | 0.00 | 0.00 | 0.00 | 40 | 1005.3 |
| 20260506150005 | 75 | 248 | 10.4 | 13.0 | 0.00 | 0.00 | 0.00 | 43 | 1003.8 |
| 20260506145505 | 75 | 261 | 9.6 | 13.0 | 0.00 | 0.00 | 0.00 | 41 | 1003.7 |
| 20260506145225 | 75 | 252 | 9.6 | 13.9 | 0.00 | 0.00 | 0.00 | 40 | 1005.5 |
| 20260506145004 | 75 | 239 | 10.4 | 13.0 | 0.00 | 0.00 | 0.00 | 40 | 1003.7 |
| 20260506144725 | 76 | 245 | 10.4 | 15.6 | 0.00 | 0.00 | 0.00 | 39 | 1005.6 |
| 20260506144504 | 75 | 241 | 11.3 | 15.6 | 0.00 | 0.00 | 0.00 | 41 | 1003.8 |
| 20260506144224 | 75 | 287 | 13.9 | 18.2 | 0.00 | 0.00 | 0.00 | 41 | 1005.6 |
| 20260506144005 | 75 | 273 | 13.0 | 16.5 | 0.00 | 0.00 | 0.00 | 40 | 1003.8 |
| 20260506143724 | 75 | 299 | 13.0 | 18.2 | 0.00 | 0.00 | 0.00 | 39 | 1005.6 |
| 20260506143504 | 75 | 251 | 11.3 | 16.5 | 0.00 | 0.00 | 0.00 | 42 | 1003.6 |
| 20260506143225 | 76 | 273 | 9.6 | 14.8 | 0.00 | 0.00 | 0.00 | 41 | 1005.4 |
| 20260506142724 | 76 | 259 | 7.8 | 14.8 | 0.00 | 0.00 | 0.00 | 42 | 1005.2 |
| 20260506142505 | 75 | 269 | 8.7 | 12.2 | 0.00 | 0.00 | 0.00 | 44 | 1003.8 |
| 20260506142224 | 75 | 282 | 10.4 | 19.1 | 0.00 | 0.00 | 0.00 | 44 | 1005.4 |
| 20260506142004 | 75 | 280 | 11.3 | 18.2 | 0.00 | 0.00 | 0.00 | 45 | 1003.8 |
| 20260506141725 | 75 | 286 | 13.0 | 19.1 | 0.00 | 0.00 | 0.00 | 45 | 1005.4 |
| 20260506141504 | 75 | 292 | 14.8 | 18.2 | 0.00 | 0.00 | 0.00 | 45 | 1003.8 |
| 20260506141225 | 75 | 297 | 14.8 | 18.2 | 0.00 | 0.00 | 0.00 | 45 | 1005.6 |
| 20260506141005 | 75 | 297 | 15.6 | 18.2 | 0.00 | 0.00 | 0.00 | 45 | 1003.9 |
| 20260506140724 | 75 | 322 | 13.9 | 18.2 | 0.00 | 0.00 | 0.00 | 44 | 1005.7 |
| 20260506140504 | 75 | 282 | 13.0 | 16.5 | 0.00 | 0.00 | 0.00 | 45 | 1004.1 |
| 20260506140231 | 75 | 301 | 12.2 | 15.6 | 0.00 | 0.00 | 0.00 | 44 | 1005.5 |
| 20260506135004 | 75 | 256 | 10.4 | 14.8 | 0.00 | 0.00 | 0.00 | 46 | 1004.0 |
| 20260506134725 | 74 | 258 | 8.7 | 13.0 | 0.00 | 0.00 | 0.00 | 46 | 1005.5 |
| 20260506134504 | 74 | 243 | 7.8 | 11.3 | 0.00 | 0.00 | 0.00 | 46 | 1003.9 |
| 20260506133724 | 74 | 250 | 9.6 | 13.9 | 0.00 | 0.00 | 0.00 | 46 | 1005.5 |
| 20260506133504 | 74 | 236 | 9.6 | 14.8 | 0.00 | 0.00 | 0.00 | 46 | 1003.8 |
| 20260506133004 | 74 | 244 | 9.6 | 13.0 | 0.00 | 0.00 | 0.00 | 46 | 1003.9 |
| 20260506132724 | 74 | 257 | 10.4 | 13.9 | 0.00 | 0.00 | 0.00 | 45 | 1005.4 |
| 20260506132505 | 74 | 284 | 10.4 | 13.9 | 0.00 | 0.00 | 0.00 | 46 | 1003.9 |
| 20260506132224 | 75 | 273 | 11.3 | 13.9 | 0.00 | 0.00 | 0.00 | 45 | 1005.4 |
| 20260506132005 | 75 | 270 | 11.3 | 13.9 | 0.00 | 0.00 | 0.00 | 45 | 1003.6 |
| 20260506131725 | 75 | 256 | 10.4 | 13.9 | 0.00 | 0.00 | 0.00 | 44 | 1005.2 |
| 20260506131504 | 75 | 235 | 10.4 | 13.9 | 0.00 | 0.00 | 0.00 | 45 | 1003.8 |
| 20260506131005 | 75 | 226 | 8.7 | 11.3 | 0.00 | 0.00 | 0.00 | 45 | 1003.8 |
| 20260506130232 | 74 | 254 | 9.6 | 13.0 | 0.00 | 0.00 | 0.00 | 46 | 1005.4 |
| 20260506130005 | 74 | 240 | 8.7 | 13.0 | 0.00 | 0.00 | 0.00 | 48 | 1004.0 |
| 20260506125724 | 73 | 244 | 8.7 | 13.0 | 0.00 | 0.00 | 0.00 | 46 | 1005.8 |
| 20260506125224 | 73 | 243 | 8.7 | 13.0 | 0.00 | 0.00 | 0.00 | 46 | 1005.6 |
| 20260506125004 | 73 | 272 | 9.6 | 13.9 | 0.00 | 0.00 | 0.00 | 48 | 1004.0 |
| 20260506124724 | 73 | 234 | 8.7 | 13.0 | 0.00 | 0.00 | 0.00 | 47 | 1005.6 |
| 20260506124505 | 73 | 253 | 9.6 | 13.9 | 0.00 | 0.00 | 0.00 | 48 | 1004.0 |
| 20260506124225 | 74 | 233 | 8.7 | 13.9 | 0.00 | 0.00 | 0.00 | 47 | 1005.5 |
| 20260506124004 | 74 | 236 | 8.7 | 13.9 | 0.00 | 0.00 | 0.00 | 48 | 1004.1 |
| 20260506123724 | 74 | 266 | 9.6 | 13.9 | 0.00 | 0.00 | 0.00 | 46 | 1005.5 |
| 20260506123504 | 74 | 260 | 10.4 | 13.9 | 0.00 | 0.00 | 0.00 | 48 | 1004.0 |
| 20260506123225 | 74 | 287 | 10.4 | 13.0 | 0.00 | 0.00 | 0.00 | 47 | 1005.6 |
| 20260506122724 | 73 | 271 | 10.4 | 13.0 | 0.00 | 0.00 | 0.00 | 50 | 1005.6 |
| 20260506122504 | 73 | 258 | 9.6 | 12.2 | 0.00 | 0.00 | 0.00 | 51 | 1003.9 |
| 20260506122004 | 73 | 241 | 9.6 | 11.3 | 0.00 | 0.00 | 0.00 | 50 | 1003.9 |
| 20260506121505 | 73 | 244 | 10.4 | 13.0 | 0.00 | 0.00 | 0.00 | 51 | 1004.1 |
| 20260506121225 | 73 | 274 | 10.4 | 13.9 | 0.00 | 0.00 | 0.00 | 50 | 1005.6 |
| 20260506121004 | 73 | 244 | 11.3 | 13.0 | 0.00 | 0.00 | 0.00 | 51 | 1004.0 |
| 20260506120724 | 73 | 299 | 10.4 | 12.2 | 0.00 | 0.00 | 0.00 | 51 | 1005.6 |
| 20260506120504 | 73 | 249 | 10.4 | 12.2 | 0.00 | 0.00 | 0.00 | 51 | 1004.2 |
| 20260506120005 | 73 | 277 | 11.3 | 14.8 | 0.00 | 0.00 | 0.00 | 51 | 1004.0 |
| 20260506115504 | 72 | 286 | 10.4 | 14.8 | 0.00 | 0.00 | 0.00 | 52 | 1003.9 |
| 20260506115225 | 72 | 253 | 9.6 | 13.9 | 0.00 | 0.00 | 0.00 | 51 | 1005.4 |
| 20260506115004 | 72 | 258 | 8.7 | 11.3 | 0.00 | 0.00 | 0.00 | 52 | 1004.0 |
| 20260506114725 | 72 | 238 | 8.7 | 11.3 | 0.00 | 0.00 | 0.00 | 50 | 1005.6 |
| 20260506114504 | 72 | 260 | 9.6 | 13.9 | 0.00 | 0.00 | 0.00 | 52 | 1004.1 |
| 20260506114224 | 72 | 274 | 9.6 | 13.0 | 0.00 | 0.00 | 0.00 | 51 | 1005.6 |
| 20260506114005 | 72 | 256 | 8.7 | 13.9 | 0.00 | 0.00 | 0.00 | 52 | 1004.0 |
| 20260506113724 | 72 | 300 | 8.7 | 13.0 | 0.00 | 0.00 | 0.00 | 52 | 1005.6 |
| 20260506113005 | 72 | 265 | 8.7 | 11.3 | 0.00 | 0.00 | 0.00 | 52 | 1004.1 |
| 20260506112724 | 72 | 264 | 9.6 | 12.2 | 0.00 | 0.00 | 0.00 | 51 | 1005.6 |
| 20260506112224 | 72 | 268 | 10.4 | 12.2 | 0.00 | 0.00 | 0.00 | 51 | 1005.6 |
| 20260506112004 | 72 | 264 | 10.4 | 13.9 | 0.00 | 0.00 | 0.00 | 51 | 1004.1 |
| 20260506111725 | 72 | 258 | 10.4 | 13.0 | 0.00 | 0.00 | 0.00 | 51 | 1005.6 |
| 20260506111505 | 72 | 255 | 10.4 | 13.9 | 0.00 | 0.00 | 0.00 | 52 | 1004.0 |
| 20260506111224 | 72 | 252 | 9.6 | 13.0 | 0.00 | 0.00 | 0.00 | 51 | 1005.7 |
| 20260506111004 | 71 | 240 | 10.4 | 12.2 | 0.00 | 0.00 | 0.00 | 53 | 1004.2 |
| 20260506110725 | 71 | 255 | 10.4 | 13.9 | 0.00 | 0.00 | 0.00 | 52 | 1005.7 |
| 20260506110230 | 72 | 257 | 10.4 | 13.9 | 0.00 | 0.00 | 0.00 | 50 | 1005.7 |
| 20260506110005 | 72 | 263 | 9.6 | 13.9 | 0.00 | 0.00 | 0.00 | 51 | 1004.3 |
| 20260506105725 | 72 | 251 | 8.7 | 12.2 | 0.00 | 0.00 | 0.00 | 49 | 1005.4 |
| 20260506105504 | 72 | 257 | 8.7 | 14.8 | 0.00 | 0.00 | 0.00 | 51 | 1004.2 |
| 20260506105224 | 72 | 268 | 7.0 | 13.9 | 0.00 | 0.00 | 0.00 | 49 | 1005.7 |
| 20260506105005 | 72 | 287 | 7.8 | 14.8 | 0.00 | 0.00 | 0.00 | 51 | 1004.2 |
| 20260506104724 | 72 | 271 | 7.0 | 13.9 | 0.00 | 0.00 | 0.00 | 49 | 1005.6 |
| 20260506104504 | 72 | 277 | 7.8 | 12.2 | 0.00 | 0.00 | 0.00 | 51 | 1003.7 |
| 20260506104225 | 72 | 262 | 7.8 | 10.4 | 0.00 | 0.00 | 0.00 | 49 | 1005.3 |
| 20260506104004 | 72 | 277 | 7.8 | 10.4 | 0.00 | 0.00 | 0.00 | 51 | 1004.0 |
| 20260506103505 | 72 | 269 | 7.8 | 10.4 | 0.00 | 0.00 | 0.00 | 51 | 1004.0 |
| 20260506103224 | 71 | 254 | 7.8 | 10.4 | 0.00 | 0.00 | 0.00 | 52 | 1005.4 |
| 20260506103005 | 71 | 242 | 7.8 | 10.4 | 0.00 | 0.00 | 0.00 | 53 | 1003.9 |
| 20260506102725 | 71 | 248 | 7.8 | 12.2 | 0.00 | 0.00 | 0.00 | 51 | 1005.6 |
| 20260506102224 | 72 | 244 | 8.7 | 12.2 | 0.00 | 0.00 | 0.00 | 47 | 1005.3 |
| 20260506102004 | 72 | 249 | 9.6 | 13.0 | 0.00 | 0.00 | 0.00 | 51 | 1004.0 |
| 20260506101725 | 72 | 282 | 8.7 | 11.3 | 0.00 | 0.00 | 0.00 | 48 | 1005.3 |
| 20260506101505 | 72 | 236 | 9.6 | 12.2 | 0.00 | 0.00 | 0.00 | 51 | 1004.0 |
| 20260506101224 | 72 | 318 | 8.7 | 11.3 | 0.00 | 0.00 | 0.00 | 48 | 1005.4 |
| 20260506100724 | 71 | 313 | 8.7 | 10.4 | 0.00 | 0.00 | 0.00 | 52 | 1005.4 |
| 20260506100504 | 71 | 263 | 9.6 | 12.2 | 0.00 | 0.00 | 0.00 | 53 | 1003.9 |
| 20260506100230 | 71 | 299 | 7.8 | 10.4 | 0.00 | 0.00 | 0.00 | 52 | 1005.4 |
| 20260506100005 | 71 | 241 | 7.8 | 12.2 | 0.00 | 0.00 | 0.00 | 53 | 1003.9 |
| 20260506095724 | 71 | 257 | 7.0 | 8.7 | 0.00 | 0.00 | 0.00 | 51 | 1005.4 |
| 20260506095505 | 71 | 230 | 7.8 | 12.2 | 0.00 | 0.00 | 0.00 | 53 | 1004.1 |
| 20260506095224 | 71 | 234 | 7.0 | 12.2 | 0.00 | 0.00 | 0.00 | 53 | 1005.3 |
| 20260506094724 | 70 | 273 | 7.8 | 12.2 | 0.00 | 0.00 | 0.00 | 52 | 1005.5 |
| 20260506094505 | 70 | 233 | 7.8 | 12.2 | 0.00 | 0.00 | 0.00 | 53 | 1004.2 |
| 20260506094224 | 70 | 254 | 8.7 | 10.4 | 0.00 | 0.00 | 0.00 | 52 | 1005.3 |
| 20260506094004 | 70 | 237 | 8.7 | 12.2 | 0.00 | 0.00 | 0.00 | 54 | 1003.8 |
| 20260506093505 | 69 | 246 | 8.7 | 14.8 | 0.00 | 0.00 | 0.00 | 55 | 1003.9 |
| 20260506093224 | 69 | 287 | 9.6 | 13.9 | 0.00 | 0.00 | 0.00 | 55 | 1005.4 |
| 20260506092724 | 69 | 303 | 10.4 | 13.9 | 0.00 | 0.00 | 0.00 | 54 | 1005.2 |
| 20260506092224 | 70 | 304 | 9.6 | 13.9 | 0.00 | 0.00 | 0.00 | 54 | 1005.2 |
| 20260506092004 | 70 | 254 | 8.7 | 13.9 | 0.00 | 0.00 | 0.00 | 55 | 1003.9 |
| 20260506091724 | 70 | 295 | 7.8 | 13.9 | 0.00 | 0.00 | 0.00 | 54 | 1005.1 |
| 20260506091505 | 70 | 244 | 7.8 | 10.4 | 0.00 | 0.00 | 0.00 | 54 | 1003.7 |
| 20260506091224 | 70 | 256 | 7.8 | 9.6 | 0.00 | 0.00 | 0.00 | 54 | 1005.3 |
| 20260506091004 | 70 | 251 | 7.8 | 10.4 | 0.00 | 0.00 | 0.00 | 55 | 1003.8 |
| 20260506090724 | 69 | 247 | 7.8 | 9.6 | 0.00 | 0.00 | 0.00 | 55 | 1005.4 |
| 20260506090004 | 70 | 233 | 9.6 | 13.9 | 0.00 | 0.00 | 0.00 | 56 | 1003.7 |
| 20260506085724 | 69 | 232 | 9.6 | 13.0 | 0.00 | 0.00 | 0.00 | 56 | 1005.1 |
| 20260506085225 | 69 | 277 | 9.6 | 13.0 | 0.00 | 0.00 | 0.00 | 55 | 1005.2 |
| 20260506085005 | 69 | 248 | 9.6 | 13.9 | 0.00 | 0.00 | 0.00 | 58 | 1003.8 |
| 20260506084724 | 68 | 311 | 8.7 | 12.2 | 0.00 | 0.00 | 0.00 | 58 | 1005.3 |
| 20260506084504 | 68 | 253 | 7.8 | 10.4 | 0.00 | 0.00 | 0.00 | 58 | 1003.7 |
| 20260506084225 | 68 | 283 | 7.8 | 11.3 | 0.00 | 0.00 | 0.00 | 57 | 1005.2 |
| 20260506084004 | 68 | 237 | 8.7 | 11.3 | 0.00 | 0.00 | 0.00 | 59 | 1003.7 |
| 20260506083724 | 67 | 265 | 8.7 | 11.3 | 0.00 | 0.00 | 0.00 | 59 | 1005.6 |
| 20260506083505 | 67 | 249 | 9.6 | 11.3 | 0.00 | 0.00 | 0.00 | 59 | 1003.9 |
| 20260506083224 | 67 | 251 | 8.7 | 11.3 | 0.00 | 0.00 | 0.00 | 58 | 1005.4 |
| 20260506082724 | 67 | 250 | 7.8 | 10.4 | 0.00 | 0.00 | 0.00 | 58 | 1005.4 |
| 20260506082504 | 67 | 249 | 7.8 | 12.2 | 0.00 | 0.00 | 0.00 | 58 | 1003.7 |
| 20260506082004 | 67 | 208 | 9.6 | 13.9 | 0.00 | 0.00 | 0.00 | 59 | 1003.8 |
| 20260506081724 | 67 | 239 | 10.4 | 13.0 | 0.00 | 0.00 | 0.00 | 57 | 1005.6 |
| 20260506081505 | 67 | 229 | 12.2 | 13.9 | 0.00 | 0.00 | 0.00 | 59 | 1003.7 |
| 20260506081005 | 67 | 223 | 12.2 | 13.0 | 0.00 | 0.00 | 0.00 | 58 | 1003.6 |
| 20260506080725 | 67 | 211 | 9.6 | 13.0 | 0.00 | 0.00 | 0.00 | 59 | 1005.2 |
| 20260506080505 | 67 | 210 | 11.3 | 13.0 | 0.00 | 0.00 | 0.00 | 58 | 1003.6 |
| 20260506080230 | 67 | 212 | 10.4 | 13.0 | 0.00 | 0.00 | 0.00 | 58 | 1005.3 |
| 20260506073505 | 66 | 226 | 8.7 | 13.9 | 0.00 | 0.00 | 0.00 | 60 | 1003.6 |
| 20260506073225 | 66 | 238 | 9.6 | 13.9 | 0.00 | 0.00 | 0.00 | 61 | 1005.0 |
| 20260506073004 | 66 | 239 | 9.6 | 13.9 | 0.00 | 0.00 | 0.00 | 62 | 1003.6 |
| 20260506072224 | 66 | 253 | 9.6 | 12.2 | 0.00 | 0.00 | 0.00 | 60 | 1005.0 |
| 20260506072005 | 66 | 221 | 9.6 | 11.3 | 0.00 | 0.00 | 0.00 | 62 | 1003.6 |
| 20260506071724 | 65 | 248 | 9.6 | 13.0 | 0.00 | 0.00 | 0.00 | 60 | 1005.2 |
| 20260506071504 | 66 | 222 | 8.7 | 13.0 | 0.00 | 0.00 | 0.00 | 61 | 1003.4 |
| 20260506070504 | 66 | 226 | 8.7 | 13.0 | 0.00 | 0.00 | 0.00 | 62 | 1003.2 |
| 20260506062504 | 62 | 217 | 7.0 | 9.6 | 0.00 | 0.00 | 0.00 | 66 | 1003.0 |
| 20260506062224 | 62 | 208 | 7.0 | 12.2 | 0.00 | 0.00 | 0.00 | 65 | 1004.7 |
| 20260506061725 | 61 | 223 | 7.8 | 12.2 | 0.00 | 0.00 | 0.00 | 64 | 1004.9 |
| 20260506061504 | 62 | 205 | 8.7 | 12.2 | 0.00 | 0.00 | 0.00 | 65 | 1003.2 |
| 20260506061225 | 61 | 231 | 7.8 | 12.2 | 0.00 | 0.00 | 0.00 | 64 | 1004.6 |
| 20260506061004 | 62 | 203 | 9.6 | 12.2 | 0.00 | 0.00 | 0.00 | 64 | 1003.2 |
| 20260506060724 | 62 | 224 | 7.0 | 11.3 | 0.00 | 0.00 | 0.00 | 64 | 1004.7 |
| 20260506060504 | 62 | 201 | 8.7 | 9.6 | 0.00 | 0.00 | 0.00 | 65 | 1003.1 |
| 20260506060231 | 62 | 220 | 7.0 | 11.3 | 0.00 | 0.00 | 0.00 | 64 | 1004.7 |
| 20260506051225 | 61 | 210 | 6.1 | 7.8 | 0.00 | 0.00 | 0.00 | 65 | 1004.7 |
| 20260506051004 | 60 | 214 | 5.2 | 8.7 | 0.00 | 0.00 | 0.00 | 67 | 1002.8 |
| 20260506050724 | 60 | 201 | 4.3 | 7.8 | 0.00 | 0.00 | 0.00 | 65 | 1005.0 |
| 20260506050504 | 60 | 215 | 5.2 | 8.7 | 0.00 | 0.00 | 0.00 | 69 | 1003.0 |
| 20260506050231 | 60 | 209 | 4.3 | 9.6 | 0.00 | 0.00 | 0.00 | 68 | 1004.7 |
| 20260506045004 | 59 | 215 | 4.3 | 7.0 | 0.00 | 0.00 | 0.00 | 74 | 1003.2 |
| 20260506044725 | 58 | 225 | 4.3 | 7.0 | 0.00 | 0.00 | 0.00 | 75 | 1004.8 |
| 20260506044004 | 57 | 204 | 3.5 | 4.3 | 0.00 | 0.00 | 0.00 | 81 | 1003.3 |
| 20260506043724 | 55 | 188 | 3.5 | 4.3 | 0.00 | 0.00 | 0.00 | 94 | 1004.8 |
| 20260506043505 | 56 | 193 | 3.5 | 4.3 | 0.00 | 0.00 | 0.00 | 85 | 1003.1 |
| 20260506043225 | 54 | 179 | 2.6 | 4.3 | 0.00 | 0.00 | 0.00 | 96 | 1005.0 |
| 20260506043004 | 55 | 186 | 2.6 | 4.3 | 0.00 | 0.00 | 0.00 | 86 | 1003.3 |
| 20260506042724 | 53 | 186 | 2.6 | 3.5 | 0.00 | 0.00 | 0.00 | 97 | 1005.0 |
| 20260506042504 | 54 | 183 | 1.7 | 2.6 | 0.00 | 0.00 | 0.00 | 88 | 1003.2 |
| 20260506042005 | 54 | 171 | 1.7 | 2.6 | 0.00 | 0.00 | 0.00 | 90 | 1003.2 |
| 20260506041725 | 51 | 168 | 1.7 | 2.6 | 0.00 | 0.00 | 0.00 | 99 | 1005.0 |
| 20260506041504 | 53 | 153 | 1.7 | 2.6 | 0.00 | 0.00 | 0.00 | 92 | 1003.3 |
| 20260506041224 | 51 | 173 | 1.7 | 3.5 | 0.00 | 0.00 | 0.00 | 99 | 1004.8 |
| 20260506041005 | 53 | 132 | 1.7 | 1.7 | 0.00 | 0.00 | 0.00 | 92 | 1003.3 |
| 20260506040724 | 50 | 158 | 1.7 | 3.5 | 0.00 | 0.00 | 0.00 | 99 | 1004.8 |
| 20260506040504 | 51 | 150 | 1.7 | 1.7 | 0.00 | 0.00 | 0.00 | 94 | 1003.1 |
| 20260506040230 | 50 | 150 | 1.7 | 1.7 | 0.00 | 0.00 | 0.00 | 99 | 1005.1 |
| 20260506040004 | 51 | 165 | 1.7 | 1.7 | 0.00 | 0.00 | 0.00 | 94 | 1003.2 |
| 20260506035725 | 50 | 155 | 1.7 | 1.7 | 0.00 | 0.00 | 0.00 | 99 | 1005.1 |
| 20260506035505 | 51 | 159 | 0.9 | 1.7 | 0.00 | 0.00 | 0.00 | 94 | 1003.1 |
| 20260506035224 | 50 | 144 | 0.9 | 1.7 | 0.00 | 0.00 | 0.00 | 99 | 1004.9 |
| 20260506035004 | 51 | 142 | 0.9 | 1.7 | 0.00 | 0.00 | 0.00 | 94 | 1003.2 |
| 20260506034724 | 50 | 129 | 0.0 | 1.7 | 0.00 | 0.00 | 0.00 | 99 | 1005.2 |
| 20260506034504 | 51 | 124 | 0.9 | 1.7 | 0.00 | 0.00 | 0.00 | 94 | 1003.3 |
| 20260506034225 | 50 | 123 | 0.9 | 1.7 | 0.00 | 0.00 | 0.00 | 99 | 1004.9 |
| 20260506034004 | 51 | 119 | 1.7 | 1.7 | 0.00 | 0.00 | 0.00 | 94 | 1003.3 |
| 20260506033724 | 50 | 113 | 0.9 | 1.7 | 0.00 | 0.00 | 0.00 | 99 | 1005.1 |
| 20260506033504 | 51 | 115 | 1.7 | 1.7 | 0.00 | 0.00 | 0.00 | 94 | 1003.2 |
| 20260506033224 | 50 | 108 | 1.7 | 1.7 | 0.00 | 0.00 | 0.00 | 99 | 1005.0 |
| 20260506033005 | 51 | 117 | 1.7 | 2.6 | 0.00 | 0.00 | 0.00 | 94 | 1003.2 |
| 20260506032725 | 50 | 116 | 1.7 | 2.6 | 0.00 | 0.00 | 0.00 | 99 | 1005.0 |
| 20260506032505 | 51 | 111 | 1.7 | 2.6 | 0.00 | 0.00 | 0.00 | 94 | 1003.3 |
| 20260506032004 | 51 | 109 | 1.7 | 2.6 | 0.00 | 0.00 | 0.00 | 94 | 1003.3 |
| 20260506031724 | 50 | 105 | 1.7 | 1.7 | 0.00 | 0.00 | 0.00 | 98 | 1005.1 |
| 20260506031504 | 51 | 116 | 1.7 | 1.7 | 0.00 | 0.00 | 0.00 | 94 | 1003.3 |
| 20260506030504 | 51 | 117 | 1.7 | 1.7 | 0.00 | 0.00 | 0.00 | 94 | 1003.5 |
| 20260506030004 | 51 | 110 | 1.7 | 2.6 | 0.00 | 0.00 | 0.00 | 94 | 1003.4 |
| 20260506025505 | 51 | 114 | 1.7 | 2.6 | 0.00 | 0.00 | 0.00 | 94 | 1003.3 |
| 20260506025225 | 50 | 108 | 1.7 | 1.7 | 0.00 | 0.00 | 0.00 | 98 | 1005.1 |
| 20260506025004 | 51 | 113 | 1.7 | 1.7 | 0.00 | 0.00 | 0.00 | 94 | 1003.5 |
| 20260506024504 | 50 | 89 | 1.7 | 1.7 | 0.00 | 0.00 | 0.00 | 93 | 1003.4 |
| 20260506024005 | 50 | 101 | 1.7 | 1.7 | 0.00 | 0.00 | 0.00 | 93 | 1003.3 |
| 20260506023724 | 50 | 100 | 0.9 | 1.7 | 0.00 | 0.00 | 0.00 | 97 | 1005.1 |
| 20260506023504 | 51 | 110 | 1.7 | 1.7 | 0.00 | 0.00 | 0.00 | 93 | 1003.4 |
| 20260506023225 | 50 | 115 | 0.9 | 1.7 | 0.00 | 0.00 | 0.00 | 97 | 1005.2 |
| 20260506023004 | 51 | 113 | 1.7 | 1.7 | 0.00 | 0.00 | 0.00 | 93 | 1003.3 |
| 20260506022724 | 50 | 124 | 0.9 | 1.7 | 0.00 | 0.00 | 0.00 | 96 | 1005.2 |
| 20260506022504 | 51 | 112 | 0.9 | 1.7 | 0.00 | 0.00 | 0.00 | 93 | 1003.4 |
| 20260506022224 | 50 | 120 | 0.9 | 1.7 | 0.00 | 0.00 | 0.00 | 97 | 1005.3 |
| 20260506022004 | 51 | 104 | 0.9 | 1.7 | 0.00 | 0.00 | 0.00 | 93 | 1003.4 |
| 20260506021725 | 50 | 0 | 0.0 | 0.0 | 0.00 | 0.00 | 0.00 | 97 | 1005.3 |
| 20260506021224 | 50 | 0 | 0.0 | 0.0 | 0.00 | 0.00 | 0.00 | 96 | 1005.4 |
| 20260506021005 | 51 | 0 | 0.0 | 0.0 | 0.00 | 0.00 | 0.00 | 93 | 1003.5 |
| 20260506020725 | 51 | 135 | 0.0 | 0.9 | 0.00 | 0.00 | 0.00 | 96 | 1005.3 |
| 20260506020504 | 53 | 135 | 0.0 | 0.9 | 0.00 | 0.00 | 0.00 | 93 | 1003.5 |
| 20260506020230 | 51 | 135 | 0.0 | 1.7 | 0.00 | 0.00 | 0.00 | 96 | 1005.3 |
| 20260506020004 | 53 | 130 | 0.0 | 1.7 | 0.00 | 0.00 | 0.00 | 93 | 1003.5 |
| 20260506015724 | 52 | 125 | 0.9 | 1.7 | 0.00 | 0.00 | 0.00 | 96 | 1005.4 |
| 20260506015504 | 53 | 127 | 0.9 | 1.7 | 0.00 | 0.00 | 0.00 | 93 | 1003.5 |
| 20260506015225 | 52 | 129 | 1.7 | 1.7 | 0.00 | 0.00 | 0.00 | 96 | 1005.3 |
| 20260506015004 | 53 | 134 | 1.7 | 2.6 | 0.00 | 0.00 | 0.00 | 93 | 1003.6 |
| 20260506014725 | 52 | 133 | 1.7 | 2.6 | 0.00 | 0.00 | 0.00 | 96 | 1005.4 |
| 20260506014224 | 51 | 135 | 0.9 | 2.6 | 0.00 | 0.00 | 0.00 | 96 | 1005.2 |
| 20260506013724 | 52 | 135 | 0.9 | 1.7 | 0.00 | 0.00 | 0.00 | 96 | 1005.4 |
| 20260506013504 | 53 | 115 | 0.0 | 1.7 | 0.00 | 0.00 | 0.00 | 92 | 1003.7 |
| 20260506013225 | 52 | 135 | 0.9 | 1.7 | 0.00 | 0.00 | 0.00 | 95 | 1005.3 |
| 20260506013004 | 53 | 128 | 0.9 | 1.7 | 0.00 | 0.00 | 0.00 | 92 | 1003.7 |
| 20260506012725 | 52 | 135 | 1.7 | 1.7 | 0.00 | 0.00 | 0.00 | 95 | 1005.4 |
| 20260506012505 | 53 | 121 | 1.7 | 2.6 | 0.00 | 0.00 | 0.00 | 92 | 1003.7 |
| 20260506012225 | 52 | 129 | 1.7 | 1.7 | 0.00 | 0.00 | 0.00 | 94 | 1005.2 |
| 20260506012004 | 53 | 115 | 1.7 | 2.6 | 0.00 | 0.00 | 0.00 | 92 | 1003.5 |
| 20260506011505 | 53 | 121 | 0.9 | 2.6 | 0.00 | 0.00 | 0.00 | 92 | 1003.5 |
| 20260506011224 | 52 | 125 | 0.9 | 2.6 | 0.00 | 0.00 | 0.00 | 94 | 1005.4 |
| 20260506010725 | 52 | 118 | 0.0 | 1.7 | 0.00 | 0.00 | 0.00 | 94 | 1005.4 |
| 20260506010230 | 53 | 123 | 0.0 | 0.9 | 0.00 | 0.00 | 0.00 | 94 | 1005.4 |
| 20260506005724 | 53 | 127 | 0.0 | 1.7 | 0.00 | 0.00 | 0.00 | 94 | 1005.5 |
| 20260506005505 | 54 | 118 | 0.9 | 1.7 | 0.00 | 0.00 | 0.00 | 91 | 1003.8 |
| 20260506005224 | 53 | 119 | 0.9 | 1.7 | 0.00 | 0.00 | 0.00 | 94 | 1005.5 |
| 20260506005004 | 54 | 115 | 1.7 | 2.6 | 0.00 | 0.00 | 0.00 | 91 | 1003.9 |
| 20260506004505 | 54 | 118 | 2.6 | 3.5 | 0.00 | 0.00 | 0.00 | 90 | 1003.9 |
| 20260506004224 | 53 | 126 | 2.6 | 3.5 | 0.00 | 0.00 | 0.00 | 94 | 1005.4 |
| 20260506004004 | 54 | 118 | 2.6 | 3.5 | 0.00 | 0.00 | 0.00 | 90 | 1003.9 |
| 20260506003504 | 54 | 105 | 3.5 | 3.5 | 0.00 | 0.00 | 0.00 | 90 | 1003.9 |
| 20260506003225 | 53 | 116 | 2.6 | 2.6 | 0.00 | 0.00 | 0.00 | 94 | 1005.6 |
| 20260506003004 | 54 | 94 | 1.7 | 3.5 | 0.00 | 0.00 | 0.00 | 90 | 1003.8 |
| 20260506002724 | 53 | 115 | 1.7 | 2.6 | 0.00 | 0.00 | 0.00 | 94 | 1005.5 |
| 20260506002504 | 54 | 99 | 0.9 | 3.5 | 0.00 | 0.00 | 0.00 | 90 | 1003.7 |
| 20260506002224 | 53 | 126 | 1.7 | 2.6 | 0.00 | 0.00 | 0.00 | 93 | 1005.6 |
| 20260506002004 | 54 | 101 | 1.7 | 2.6 | 0.00 | 0.00 | 0.00 | 89 | 1003.8 |
| 20260506001725 | 54 | 125 | 1.7 | 2.6 | 0.00 | 0.00 | 0.00 | 92 | 1005.7 |
| 20260506001504 | 54 | 102 | 0.9 | 2.6 | 0.00 | 0.00 | 0.00 | 89 | 1004.0 |
| 20260506001224 | 53 | 117 | 0.9 | 2.6 | 0.00 | 0.00 | 0.00 | 93 | 1005.4 |
| 20260506000724 | 53 | 97 | 0.9 | 1.7 | 0.00 | 0.00 | 0.00 | 93 | 1005.5 |
| 20260506000231 | 53 | 98 | 0.9 | 1.7 | 0.00 | 0.00 | 0.00 | 92 | 1005.6 |
| 20260506000004 | 54 | 0 | 0.0 | 0.0 | 0.00 | 0.00 | 0.00 | 88 | 1003.9 |
| 20260505235724 | 53 | 101 | 0.0 | 1.7 | 0.00 | 0.00 | 0.00 | 92 | 1005.4 |
| 20260505235504 | 54 | 135 | 0.0 | 1.7 | 0.00 | 0.00 | 0.00 | 87 | 1004.1 |
| 20260505235004 | 54 | 128 | 0.0 | 1.7 | 0.00 | 0.00 | 0.00 | 87 | 1004.1 |
| 20260505234504 | 54 | 131 | 0.0 | 0.9 | 0.00 | 0.00 | 0.00 | 87 | 1004.1 |
| 20260505234225 | 54 | 97 | 0.0 | 1.7 | 0.00 | 0.00 | 0.00 | 91 | 1005.7 |
| 20260505234004 | 55 | 90 | 0.9 | 1.7 | 0.00 | 0.00 | 0.00 | 88 | 1004.1 |
| 20260505233504 | 55 | 103 | 1.7 | 1.7 | 0.00 | 0.00 | 0.00 | 88 | 1004.0 |
| 20260505233225 | 54 | 110 | 0.9 | 1.7 | 0.00 | 0.00 | 0.00 | 91 | 1005.7 |
| 20260505233004 | 55 | 116 | 0.9 | 1.7 | 0.00 | 0.00 | 0.00 | 87 | 1004.0 |
| 20260505232724 | 54 | 119 | 0.9 | 2.6 | 0.00 | 0.00 | 0.00 | 90 | 1005.7 |
| 20260505232504 | 55 | 109 | 1.7 | 3.5 | 0.00 | 0.00 | 0.00 | 87 | 1004.0 |
| 20260505232225 | 54 | 89 | 1.7 | 3.5 | 0.00 | 0.00 | 0.00 | 90 | 1005.7 |
| 20260505232004 | 55 | 89 | 2.6 | 3.5 | 0.00 | 0.00 | 0.00 | 86 | 1004.1 |
| 20260505231725 | 54 | 66 | 1.7 | 3.5 | 0.00 | 0.00 | 0.00 | 89 | 1005.8 |
| 20260505231504 | 55 | 64 | 2.6 | 3.5 | 0.00 | 0.00 | 0.00 | 85 | 1004.3 |
| 20260505231225 | 54 | 145 | 1.7 | 3.5 | 0.00 | 0.00 | 0.00 | 89 | 1005.9 |
| 20260505231005 | 55 | 94 | 1.7 | 3.5 | 0.00 | 0.00 | 0.00 | 86 | 1004.4 |
| 20260505230504 | 55 | 107 | 0.9 | 1.7 | 0.00 | 0.00 | 0.00 | 85 | 1004.1 |
| 20260505230005 | 55 | 246 | 0.9 | 2.6 | 0.00 | 0.00 | 0.00 | 85 | 1004.2 |
| 20260505225725 | 54 | 282 | 0.9 | 2.6 | 0.00 | 0.00 | 0.00 | 87 | 1006.1 |
| 20260505225504 | 55 | 282 | 1.7 | 3.5 | 0.00 | 0.00 | 0.00 | 85 | 1004.3 |
| 20260505225224 | 54 | 154 | 1.7 | 3.5 | 0.00 | 0.00 | 0.00 | 87 | 1005.9 |
| 20260505225005 | 56 | 242 | 2.6 | 3.5 | 0.00 | 0.00 | 0.00 | 85 | 1004.3 |
| 20260505224724 | 54 | 150 | 1.7 | 3.5 | 0.00 | 0.00 | 0.00 | 86 | 1005.7 |
| 20260505224504 | 56 | 165 | 2.6 | 3.5 | 0.00 | 0.00 | 0.00 | 84 | 1004.3 |